Location: Montesarchio
(41.0667°N, 14.6333°E)
Time: 10:57:35
(UTC+00:00)

Daily predictions for brighter satellites

Satellite Brightness Start Highest point End
(mag) Time Altitude Azimuth Time Altitude Azimuth Time Altitude Azimuth
Cosmos 2173 Rocket 4.0 18:30:59 10° S 18:37:01 64° E 18:43:09 10° NNE
CZ-4C R/B 2.7 18:36:53 10° SW 18:40:47 50° NW 18:45:41 10° NNE
CZ-4B R/B 4.0 18:38:51 10° SE 18:43:57 36° ENE 18:49:01 10° N
Cosmos 1461 4.1 18:46:47 10° SSE 18:49:07 16° ESE 18:51:28 10° ENE
Cosmos 968 Rocket 3.8 18:44:57 10° NNW 18:50:11 69° WSW 18:55:22 10° S
USA 305 2.7 18:52:22 10° NW 18:56:28 71° NE 18:59:50 12° ESE
Feng Yun 1-1 Rocket 4.3 18:52:13 10° SSE 18:57:31 63° ENE 19:02:53 10° N
NOSS 3-3 (A) 3.6 18:52:51 10° SSW 18:57:43 60° ESE 19:03:24 10° NE
Cosmos 909 Rocket 4.2 18:52:09 10° S 18:58:24 53° ESE 19:04:31 10° NE
Sich 1 Rocket 3.7 18:55:11 10° SSW 18:59:31 77° W 19:03:54 10° N
ISS -1.1 18:58:01 10° WNW 19:00:36 21° NNW 19:03:13 10° NNE
BREEZE-M DEB (TANK) 3.5 18:57:33 10° WNW 19:00:46 53° SSW 19:09:55 11° SE
Gbstr 26 Del rocket 3.2 18:56:18 10° NW 19:01:37 83° NE 19:05:31 13° ESE
CSL-04 Debris 4.3 18:57:56 10° S 19:03:21 80° WSW 19:08:50 10° NNW
Cosmos 1452 Rocket 3.9 18:59:15 10° SSW 19:04:26 69° WNW 19:09:40 10° NNE
Meteor 2-3 Rocket 4.2 19:02:49 10° NNW 19:08:25 66° W 19:14:02 10° S
SL-08 R/B 3.7 19:04:00 10° NNE 19:08:34 42° E 19:13:01 10° S
Cosmos 1607 4.2 19:03:57 10° SW 19:10:05 75° WNW 19:16:21 10° NNE
Cosmos 1741 Rocket 4.2 19:04:57 10° NNW 19:10:16 79° WSW 19:15:31 10° SSE
Terra 1.8 19:06:49 10° SSE 19:11:27 64° ENE 19:16:06 10° N
Cosmos 2061 Rocket 4.4 19:06:03 10° SSE 19:11:50 43° E 19:17:41 10° NNE
GEOS 3 Rocket 3.7 19:07:19 12° SE 19:12:19 82° NE 19:17:43 10° NW
Cosmos 1302 Rocket 3.9 19:08:12 10° SSW 19:13:21 86° ESE 19:18:35 10° NNE
Cosmos 2322 Rocket 4.3 19:12:00 10° NNE 19:14:49 14° NE 19:17:38 10° ENE
Cosmos 2082 Rocket 2.2 19:09:51 10° SSW 19:15:34 88° ESE 19:21:19 10° NNE
Cosmos 1459 Rocket 4.4 19:10:30 10° SSW 19:16:40 68° W 19:22:49 10° N
Cosmos 1743 1.9 19:14:20 10° N 19:17:21 76° E 19:19:50 14° SSE
ADEOS 3.6 19:14:13 11° SSE 19:19:09 64° ENE 19:24:19 10° N
Delta 2 Rocket 3.7 19:17:44 10° SW 19:20:24 26° S 19:21:25 22° SE
MOS 1 4.3 19:14:48 10° SSE 19:20:28 89° ENE 19:26:12 10° NNW
Cosmos 1802 Rocket 4.1 19:15:48 10° S 19:21:59 83° W 19:28:10 10° N
Cosmos 2369 3.9 19:17:12 10° NNW 19:22:51 58° ENE 19:27:11 17° SE
PAYLOAD B 4.3 19:20:35 10° SSE 19:26:05 82° WSW 19:31:40 10° NNW
Helios 1A Rocket 2.8 19:23:08 10° N 19:26:15 60° WNW 19:29:20 10° SSW
NOSS 3-3 (C) 3.6 19:24:28 10° SSW 19:29:31 86° ESE 19:35:28 10° NE
Meteor 1-31 Rocket 4.0 19:28:06 10° SSW 19:31:16 33° W 19:34:27 10° NNW
Cosmos 1455 Rocket 3.8 19:29:50 10° SSW 19:34:08 55° W 19:38:28 10° N
CZ-4B R/B 4.3 19:35:01 16° E 19:35:44 17° ENE 19:37:58 10° NNE
Okean O Rocket 1.8 19:34:01 22° SE 19:36:33 51° ENE 19:40:43 10° N
Cosmos 1892 Rocket 3.9 19:34:25 10° NNW 19:38:41 63° W 19:42:44 11° S
DELTA 2 R/B (1) 3.5 19:33:17 10° W 19:38:51 78° S 19:43:28 15° E
Cosmos 2228 3.0 19:36:15 10° SSW 19:40:20 75° W 19:44:27 10° N
USA 186 1.9 19:40:57 35° E 19:41:19 37° ENE 19:43:53 10° N
SL-16 R/B 3.0 19:40:50 10° N 19:46:06 38° ENE 19:49:05 22° ESE
Cosmos 1544 Rocket 3.7 19:45:24 24° SSE 19:47:43 50° E 19:51:54 10° NNE
Cosmos 2233 Rocket 4.0 19:42:39 10° S 19:48:51 82° W 19:55:03 10° N
Cosmos 2084 Rocket 3.5 19:49:30 10° NW 19:53:40 67° WSW 19:55:38 30° SSE
COSMOS 2406 3.2 19:50:44 10° SSW 19:56:30 89° ESE 20:02:17 10° NNE
Okean-O 2.5 19:55:01 27° SSE 19:57:20 86° E 20:01:44 10° NNW
Cosmos 1782 4.4 19:54:48 10° SW 19:57:54 29° WNW 20:01:02 10° NNW
CZ-4 R/B 3.7 19:55:31 10° SW 19:57:59 17° W 20:00:28 10° NW
Ariane Rocket 3.8 19:58:02 26° ESE 19:59:56 35° ENE 20:04:31 10° N
Cosmos 1980 Rocket 3.5 19:56:26 10° NW 20:01:32 34° WSW 20:06:22 11° SSW
Cosmos 1933 3.3 20:02:11 43° SE 20:03:01 54° E 20:06:45 10° NNE
SPOT 3 Rocket 3.9 20:01:10 30° SE 20:03:20 50° ENE 20:08:18 10° N
Spot 2 Rocket 3.6 20:02:06 23° S 20:05:15 74° WSW 20:10:17 10° NNW
Meteor 1-20 Rocket 4.3 20:01:44 10° N 20:07:19 64° ENE 20:09:56 32° SSE
Cosmos 1758 Rocket 3.5 20:04:37 10° N 20:09:02 77° E 20:10:37 39° SSE
Cosmos 1763 Rocket 4.4 20:13:22 29° E 20:13:27 29° E 20:17:57 10° NE
Cosmos 2333 Rocket 2.5 20:08:24 10° NNW 20:14:01 55° ENE 20:16:16 34° ESE
USA 245 4.2 20:19:40 34° SSE 20:22:25 84° ENE 20:28:07 10° N
Cosmos 1461 4.0 20:21:36 10° WSW 20:25:05 38° NW 20:28:33 10° NNE
CZ-4B R/B 3.3 20:25:37 47° SE 20:26:49 66° ENE 20:31:36 10° N
Cosmos 2360 Rocket 2.9 20:22:32 10° N 20:27:54 41° ENE 20:29:39 33° E
Cosmos 1602 Rocket 3.4 20:28:55 10° N 20:33:15 78° E 20:33:49 64° SE
Cosmos 220 Rocket 4.3 20:36:01 31° SW 20:37:45 59° WNW 20:41:47 10° NNE
Cosmos 1437 Rocket 3.6 20:36:40 31° WSW 20:37:46 40° WNW 20:41:11 10° N
USA 290 4.1 20:39:46 23° NNE 20:39:46 23° NNE 20:41:08 10° NNE
ISS -0.7 20:36:36 10° NNW 20:38:22 13° N 20:40:09 10° NNE
Cosmos 1777 Rocket 4.2 20:35:03 10° N 20:40:11 55° ENE 20:41:09 48° ESE
Cosmos 2219 Rocket 3.2 20:36:10 10° N 20:41:16 33° ENE 20:42:48 29° E
Meteor 1-25 Rocket 4.1 20:36:22 10° N 20:42:02 87° W 20:43:46 46° S
Cosmos 2098 Rocket 3.1 20:44:22 54° SSW 20:45:29 85° W 20:49:51 10° N
Fengyun 1C 4.5 20:45:13 55° SSE 20:46:24 81° ENE 20:51:40 10° NNW
Cosmos 1503 Rocket 4.3 20:43:39 10° N 20:48:42 50° ENE 20:49:23 46° E
Terra 4.4 20:47:18 10° WSW 20:49:23 13° W 20:51:28 10° WNW
Cosmos 1076 Rocket 4.2 20:47:53 10° N 20:51:27 40° ENE 20:51:27 40° ENE
IRS-1C Rocket 4.2 20:53:40 50° SSW 20:54:57 71° WSW 21:00:14 10° NNW
Cosmos 1464 Rocket 3.9 20:53:50 41° S 20:56:11 85° W 21:02:24 10° N
Cosmos 2151 4.0 20:53:43 10° NNW 20:57:28 35° W 20:58:09 32° WSW
Cosmos 2322 Rocket 2.1 20:54:05 10° NNW 20:59:47 80° ENE 21:00:46 61° SE
Cosmos 1486 Rocket 3.9 20:54:32 10° NNW 20:59:50 86° WSW 21:00:35 67° S
Cosmos 1354 Rocket 4.5 20:57:57 10° N 21:03:00 46° ENE 21:03:26 45° E
Cosmos 1606 Rocket 3.6 21:03:17 69° W 21:03:26 70° W 21:07:45 10° N
Meteor 2-10 4.2 21:02:26 10° NNW 21:08:12 82° W 21:09:14 61° S
CZ-4B R/B 4.4 21:09:42 24° W 21:09:42 24° W 21:12:09 10° NW
Cosmos 1726 Rocket 3.8 21:12:34 61° NNW 21:12:34 61° NNW 21:15:59 10° N
Okean O Rocket 4.0 21:11:14 11° WSW 21:13:01 14° W 21:15:11 10° WNW
Cosmos 540 Rocket 3.3 21:13:16 77° SSW 21:13:40 89° WNW 21:18:50 10° NNE
Meteor 1-26 Rocket 4.0 21:17:24 70° ESE 21:17:36 71° E 21:23:14 10° NNE
Cosmos 1428 Rocket 4.4 21:11:41 10° N 21:17:55 81° W 21:19:09 59° S
Cosmos 1092 Rocket 4.1 21:13:42 10° N 21:19:47 57° E 21:20:29 54° ESE
Meteor 2-2 Rocket 4.2 21:23:03 66° ESE 21:23:09 66° E 21:28:50 10° NNE
DELTA 2 R/B (1) 3.9 21:19:37 10° W 21:24:09 52° WSW 21:24:09 52° WSW
Cosmos 2278 4.3 21:20:15 10° NW 21:25:39 44° WSW 21:26:23 42° SW
COSMOS 2428 4.1 21:24:15 10° N 21:29:03 27° NE 21:30:13 25° ENE
Cosmos 468 Rocket 4.1 21:30:32 65° ENE 21:30:32 65° ENE 21:35:14 10° NNE
SL-16 R/B 3.3 21:25:07 10° NW 21:30:01 31° WSW 21:30:55 30° WSW
Cosmos-2242 3.8 21:34:03 46° N 21:34:03 46° N 21:37:02 10° N
Cosmos 2034 Rocket 4.2 21:32:54 48° SW 21:34:38 66° W 21:40:57 10° N
Geosat 4.0 21:29:52 10° NNE 21:34:52 75° WNW 21:35:08 73° W
NOSS 3-4 (A) 4.0 21:30:03 10° NW 21:37:02 68° WSW 21:38:39 55° S
NOSS 3-4 (C) 4.0 21:30:41 10° NW 21:37:41 68° WSW 21:39:18 55° S
Ariane Rocket 4.4 21:38:06 26° WSW 21:38:50 27° W 21:43:05 10° NW
USA 234 3.7 21:42:11 10° ENE 21:47:10 43° E 21:47:10 43° E
Helios 1B rocket 4.2 21:55:11 25° N 21:55:11 25° N 21:56:47 10° N
Cosmos 2279 Rocket 3.9 21:53:17 69° E 21:53:24 69° E 21:59:37 10° NNE
Cosmos 2221 4.1 21:59:07 27° NE 21:59:07 27° NE 22:01:16 10° NNE
Cosmos 2333 Rocket 3.9 21:53:41 10° NW 21:57:49 21° W 21:58:17 21° WSW
Cosmos 1634 Rocket 3.9 21:57:45 71° SW 21:58:17 77° W 22:04:30 10° N
Cosmos 2297 Rocket 3.5 22:01:44 28° ENE 22:01:44 28° ENE 22:05:04 10° NE
SL-08 ROCKET BODY 4.4 21:56:02 10° N 22:02:12 73° E 22:02:20 73° E
Cosmos 1898 Rocket 4.1 21:57:26 10° N 22:02:03 49° NE 22:02:03 49° NE
Cosmos 44 3.7 22:02:13 10° NNW 22:06:56 68° NNW 22:06:56 68° NNW
Meteor 2-6 Rocket 4.3 22:08:15 79° W 22:08:21 79° W 22:14:20 10° N
Cosmos 2360 Rocket 3.5 22:06:54 10° NW 22:11:23 28° W 22:11:23 28° W
Cosmos 2322 3.9 22:08:19 10° NNW 22:13:46 65° NE 22:13:46 65° NE
ISS -0.7 22:13:16 10° NW 22:14:19 16° NNW 22:14:19 16° NNW
Cosmos 2219 Rocket 3.2 22:20:03 10° NW 22:24:29 35° W 22:24:29 35° W
Cosmos 2266 Rocket 4.1 22:20:58 10° N 22:26:49 58° ENE 22:26:49 58° ENE
Cosmos 841 Rocket 3.9 22:28:15 62° NNW 22:28:15 62° NNW 22:32:43 10° NNE
ARIANE 5 R/B 3.8 22:32:16 42° NNW 22:32:16 42° NNW 22:35:15 10° NNW
Meteor 1-19 Rocket 4.3 22:32:11 78° NNW 22:32:11 78° NNW 22:37:44 10° N
ALOS 2 3.8 22:33:58 41° NNW 22:33:58 41° NNW 22:36:52 10° NNW
RESURS DK-1 4.3 22:30:40 10° NNW 22:32:35 27° NNW 22:32:35 27° NNW
Cosmos 2322 Rocket 4.4 22:40:22 10° WNW 22:42:34 13° W 22:42:34 13° W
Lacrosse 4 Rocket 3.6 22:51:57 19° NE 22:51:57 19° NE 22:53:14 10° NE
Cosmos 1655 Rocket 4.5 22:49:07 10° N 22:55:09 48° ENE 22:55:28 48° E
CZ-2C R/B 3.1 22:58:57 54° NE 22:58:57 54° NE 23:03:34 10° N
Cosmos 2237 Rocket 2.5 22:56:50 10° NNW 23:02:17 60° NE 23:02:17 60° NE
Iridium 4 Rocket 4.5 23:04:44 44° ENE 23:04:44 44° ENE 23:09:55 10° NNE
Cosmos 1980 3.9 23:00:58 10° NNW 23:06:13 67° NE 23:06:13 67° NE
Cosmos 2227 Rocket 2.9 23:11:04 45° ENE 23:11:04 45° ENE 23:15:32 10° NNE
Cosmos 1937 Rocket 4.5 23:05:57 10° NNW 23:09:26 39° NW 23:09:26 39° NW
Meteor 2-4 Rocket 3.9 23:11:49 65° NNE 23:11:49 65° NNE 23:16:32 10° NNE
COSMOS 2428 3.6 23:08:04 10° NW 23:12:10 39° WNW 23:12:10 39° WNW
NOSS 0 Rocket 4.2 23:10:09 10° NNW 23:15:26 57° WNW 23:15:26 57° WNW
Meteor 1-11 Rocket 4.3 23:11:07 10° NNW 23:15:45 49° WNW 23:15:45 49° WNW
Cosmos 2263 Rocket 3.2 23:20:54 35° E 23:20:54 35° E 23:25:04 10° NE
SeaSat 1 3.2 23:28:37 44° ENE 23:28:45 44° ENE 23:33:24 10° NNW
USA 234 3.8 23:25:12 10° NE 23:31:30 52° NNW 23:34:29 31° W
Meteor 1-27 Rocket 4.3 23:32:34 50° WNW 23:32:34 50° WNW 23:37:59 10° N
CZ-2C R/B 3.8 23:30:11 10° N 23:35:43 48° WNW 23:35:48 48° WNW
ACS3 Solar Sail 1.9 23:31:24 10° NNE 23:37:19 59° E 23:37:20 59° E
BlueWalker 3 4.4 23:41:18 19° NNE 23:41:18 19° NNE 23:42:34 10° NE
Cosmos 2297 Rocket 3.2 23:43:29 35° WNW 23:44:00 36° WNW 23:49:11 10° N
Okean 3 Rocket 4.5 23:45:56 10° N 23:49:21 48° NNE 23:49:21 48° NNE
